West Columbia, WV

7:55 AM EDT on July 28, 2016 (GMT -0400)
Point Pleasant

Weather History for K3I2 - January, 2008

Change the Weather History Date:

Tuesday, January 8, 2008

  Actual Average (KHTS) Record (KHTS)
Temperature  
Mean Temperature 61 °F 34 °F  
Max Temperature 71 °F 42 °F 74 °F (1937)
Min Temperature 51 °F 25 °F -10 °F (1942)
Degree Days  
Heating Degree Days 4 31  
Month to date heating degree days 248  
Since 1 July heating degree days 2003  
Cooling Degree Days 0 0  
Month to date cooling degree days 0  
Year to date cooling degree days 0  
Growing Degree Days 11 (Base 50)    
Moisture  
Dew Point 43 °F    
Average Humidity 50    
Maximum Humidity 76    
Minimum Humidity 33    
Precipitation  
Precipitation 0.00 in 0.10 in 2.04 in (1953)
Month to date precipitation 0.77  
Year to date precipitation 0.77  
Snow  
Snow 0.00 in - - ()
Month to date snowfall  
Since 1 September snowfall  
Snow Depth -    
Sea Level Pressure  
Sea Level Pressure 30.00 in    
Wind  
Wind Speed 5 mph (SSW)    
Max Wind Speed 15 mph    
Max Gust Speed 24 mph    
Visibility 10 miles    
Events      
T = Trace of Precipitation, MM = Missing Value Source: NWS Daily Summary

Daily Weather History Graph

Daily Weather History Graph

Search for Another Location

Airport or City:

Trip Planner

Search our weather history database for the weather conditions in past years. The results will help you decide how hot, cold, wet, or windy it might be!

Date:

Astronomy

Jan. 08, 2008 Rise Set
Actual Time 7:47 AM EST 5:22 PM EST
Civil Twilight 7:17 AM EST 5:52 PM EST
Nautical Twilight 6:44 AM EST 6:25 PM EST
Astronomical Twilight 6:12 AM EST 6:57 PM EST
Moon 8:11 AM EST (1/8) 5:32 PM EST (1/8)
Length of Visible Light 10h 34m
Length of Day
9h 35m
New Moon, 0% of the Moon is Illuminated
Jan 8
New Moon
Jan 15
First Quarter
Jan 22
Full
Jan 30
Last Quarter
Feb 6
New

Hourly Weather History & Observations

Time (EST) Temp. Dew Point Humidity Pressure Visibility Wind Dir Wind Speed Gust Speed Precip Events Conditions
12:16 AM 51.8 °F 44.6 °F 76% 30.14 in 10.0 mi Calm Calm - N/A   Clear
12:36 AM 53.6 °F 44.6 °F 72% 30.14 in 10.0 mi Calm Calm - N/A   Clear
12:56 AM 53.6 °F 44.6 °F 72% 30.13 in 10.0 mi Calm Calm - N/A   Clear
1:16 AM 55.4 °F 44.6 °F 67% 30.13 in 10.0 mi Calm Calm - N/A   Clear
1:36 AM 55.4 °F 44.6 °F 67% 30.12 in 10.0 mi South 3.5 mph - N/A   Clear
1:56 AM 55.4 °F 44.6 °F 67% 30.13 in 10.0 mi Calm Calm - N/A   Clear
2:16 AM 55.4 °F 44.6 °F 67% 30.13 in 10.0 mi South 3.5 mph - N/A   Clear
2:36 AM 55.4 °F 44.6 °F 67% 30.13 in 10.0 mi South 3.5 mph - N/A   Clear
2:56 AM 57.2 °F 44.6 °F 63% 30.13 in 10.0 mi Calm Calm - N/A   Clear
3:16 AM 53.6 °F 44.6 °F 72% 30.13 in 10.0 mi Calm Calm - N/A   Clear
3:36 AM 53.6 °F 44.6 °F 72% 30.13 in 10.0 mi Calm Calm - N/A   Clear
4:16 AM 57.2 °F 44.6 °F 63% 30.11 in 10.0 mi Calm Calm - N/A   Clear
4:36 AM 57.2 °F 44.6 °F 63% 30.11 in 10.0 mi South 3.5 mph - N/A   Clear
4:56 AM 57.2 °F 44.6 °F 63% 30.11 in 10.0 mi South 3.5 mph - N/A   Clear
5:16 AM 55.4 °F 44.6 °F 67% 30.11 in 10.0 mi Calm Calm - N/A   Clear
5:36 AM 55.4 °F 44.6 °F 67% 30.10 in 10.0 mi SE 3.5 mph - N/A   Clear
5:56 AM 55.4 °F 44.6 °F 67% 30.10 in 10.0 mi Calm Calm - N/A   Clear
6:16 AM 55.4 °F 44.6 °F 67% 30.10 in 10.0 mi South 3.5 mph - N/A   Clear
6:36 AM 55.4 °F 42.8 °F 63% 30.10 in 10.0 mi South 3.5 mph - N/A   Clear
7:16 AM 55.4 °F 42.8 °F 63% 30.09 in 10.0 mi Calm Calm - N/A   Clear
7:36 AM 55.4 °F 42.8 °F 63% 30.09 in 10.0 mi South 3.5 mph - N/A   Clear
7:56 AM 55.4 °F 42.8 °F 63% 30.09 in 10.0 mi South 4.6 mph - N/A   Clear
8:16 AM 55.4 °F 42.8 °F 63% 30.09 in 10.0 mi South 5.8 mph - N/A   Clear
8:36 AM 57.2 °F 42.8 °F 59% 30.08 in 10.0 mi South 6.9 mph - N/A   Clear
8:56 AM 59.0 °F 42.8 °F 55% 30.08 in 10.0 mi South 6.9 mph - N/A   Clear
9:16 AM 60.8 °F 44.6 °F 55% 30.08 in 10.0 mi SSW 8.1 mph - N/A   Clear
9:36 AM 62.6 °F 44.6 °F 52% 30.08 in 10.0 mi SSW 10.4 mph 16.1 mph N/A   Clear
9:56 AM 62.6 °F 42.8 °F 48% 30.07 in 10.0 mi South 9.2 mph - N/A   Clear
10:16 AM 64.4 °F 44.6 °F 49% 30.06 in 10.0 mi SSW 10.4 mph 17.3 mph N/A   Clear
10:36 AM 64.4 °F 42.8 °F 45% 30.04 in 10.0 mi SSW 11.5 mph 21.9 mph N/A   Clear
10:56 AM 66.2 °F 42.8 °F 43% 30.04 in 10.0 mi SW 9.2 mph - N/A   Clear
11:16 AM 68.0 °F 42.8 °F 40% 30.03 in 10.0 mi SW 13.8 mph 21.9 mph N/A   Clear
11:36 AM 68.0 °F 42.8 °F 40% 30.02 in 10.0 mi SSW 13.8 mph 20.7 mph N/A   Clear
11:56 AM 69.8 °F 42.8 °F 38% 30.00 in 10.0 mi SSW 13.8 mph 21.9 mph N/A   Clear
12:16 PM 69.8 °F 42.8 °F 38% 29.99 in 10.0 mi SW 15.0 mph 24.2 mph N/A   Clear
12:36 PM 69.8 °F 42.8 °F 38% 29.97 in 10.0 mi SSW 12.7 mph 17.3 mph N/A   Clear
12:56 PM 69.8 °F 42.8 °F 38% 29.96 in 10.0 mi SSW 11.5 mph 23.0 mph N/A   Clear
1:16 PM 69.8 °F 42.8 °F 38% 29.95 in 10.0 mi SW 13.8 mph 24.2 mph N/A   Clear
1:36 PM 69.8 °F 42.8 °F 38% 29.95 in 10.0 mi SSW 8.1 mph 17.3 mph N/A   Clear
2:16 PM 71.6 °F 41.0 °F 33% 29.93 in 10.0 mi SSW 8.1 mph - N/A   Scattered Clouds
2:36 PM 71.6 °F 42.8 °F 35% 29.92 in 10.0 mi SSW 6.9 mph - N/A   Scattered Clouds
2:56 PM 71.6 °F 42.8 °F 35% 29.92 in 10.0 mi SSW 11.5 mph 17.3 mph N/A   Scattered Clouds
3:16 PM 71.6 °F 41.0 °F 33% 29.91 in 10.0 mi SSW 8.1 mph - N/A   Scattered Clouds
3:36 PM 71.6 °F 42.8 °F 35% 29.91 in 10.0 mi SW 11.5 mph 20.7 mph N/A   Mostly Cloudy
3:56 PM 71.6 °F 42.8 °F 35% 29.90 in 10.0 mi SSW 10.4 mph 20.7 mph N/A   Scattered Clouds
4:16 PM 71.6 °F 42.8 °F 35% 29.90 in 10.0 mi South 10.4 mph 19.6 mph N/A   Mostly Cloudy
4:36 PM 71.6 °F 42.8 °F 35% 29.89 in 10.0 mi SSW 9.2 mph 16.1 mph N/A   Mostly Cloudy
5:16 PM 69.8 °F 42.8 °F 38% 29.87 in 10.0 mi SSW 10.4 mph 16.1 mph N/A   Scattered Clouds
5:36 PM 69.8 °F 42.8 °F 38% 29.87 in 10.0 mi SSW 11.5 mph 17.3 mph N/A   Scattered Clouds
5:56 PM 69.8 °F 42.8 °F 38% 29.87 in 10.0 mi SSW 6.9 mph - N/A   Clear
6:16 PM 68.0 °F 44.6 °F 43% 29.87 in 10.0 mi SSW 8.1 mph - N/A   Clear
6:36 PM 68.0 °F 42.8 °F 40% 29.87 in 10.0 mi SSW 6.9 mph 16.1 mph N/A   Mostly Cloudy
6:56 PM 68.0 °F 42.8 °F 40% 29.85 in 10.0 mi SSW 9.2 mph - N/A   Mostly Cloudy
7:16 PM 68.0 °F 42.8 °F 40% 29.85 in 10.0 mi SSW 6.9 mph - N/A   Mostly Cloudy
7:36 PM 68.0 °F 42.8 °F 40% 29.84 in 10.0 mi SSW 9.2 mph 17.3 mph N/A   Mostly Cloudy
7:56 PM 68.0 °F 42.8 °F 40% 29.83 in 10.0 mi SSW 8.1 mph 17.3 mph N/A   Scattered Clouds
8:16 PM 68.0 °F 42.8 °F 40% 29.82 in 10.0 mi SSW 5.8 mph - N/A   Mostly Cloudy
8:36 PM 68.0 °F 42.8 °F 40% 29.80 in 10.0 mi SSW 9.2 mph - N/A   Overcast
8:56 PM 68.0 °F 42.8 °F 40% 29.79 in 10.0 mi South 9.2 mph - N/A   Overcast
9:16 PM 68.0 °F 42.8 °F 40% 29.77 in 10.0 mi South 6.9 mph - N/A   Overcast
9:36 PM 66.2 °F 42.8 °F 43% 29.77 in 10.0 mi South 5.8 mph - N/A   Overcast
9:56 PM 66.2 °F 42.8 °F 43% 29.75 in 10.0 mi South 9.2 mph 17.3 mph N/A   Overcast
10:16 PM 66.2 °F 42.8 °F 43% 29.74 in 10.0 mi South 9.2 mph 19.6 mph N/A   Scattered Clouds
10:36 PM 66.2 °F 42.8 °F 43% 29.73 in 10.0 mi South 9.2 mph 17.3 mph N/A   Mostly Cloudy
10:56 PM 66.2 °F 42.8 °F 43% 29.71 in 10.0 mi South 9.2 mph 18.4 mph N/A   Scattered Clouds
11:16 PM 66.2 °F 42.8 °F 43% 29.70 in 10.0 mi SSW 9.2 mph 19.6 mph N/A   Scattered Clouds
11:36 PM 64.4 °F 44.6 °F 49% 29.70 in 10.0 mi SSW 10.4 mph 19.6 mph N/A Rain Light Rain
11:56 PM 64.4 °F 46.4 °F 52% 29.72 in 10.0 mi SSW 12.7 mph 23.0 mph N/A Rain Light Rain